P/2004 DO29 ( Spacewatch-LINEAR )

Japanese version
Home page
Updated on July 18, 2005

---------------------------------------------------------------------

* Profile

Discovery Date February 17, 2004
Magnitude 19.8 mag, 19.4 mag
Discoverer A. E. Gleason (Steward Observatory, Kitt Peak), Lincoln Laboratory Near-Earth Asteroid Research project

* Orbital Elements

Epoch 2004 Oct. 2.0 TT = JDT 2453280.5
T 2004 Oct.  9.36420 TT                                 MPC
q   4.0968758            (2000.0)            P               Q
n   0.04853735     Peri.   41.59825     -0.97537340     +0.17559513
a   7.4430684      Node   147.77712     -0.19915778     -0.96120647
e   0.4495717      Incl.   14.49551     +0.09477824     -0.21271690
P  20.31

* Finding Charts

* Magnitudes Graph

        m1 = 10.0 + 5 log d + 10.0 log r

---------------------------------------------------------------------

The orbital elements are published on M.P.E.C. 2005-N45.
The charts are made with StellaNavigator Ver.2.0 for Windows (AstroArts / ASCII).
The magnitudes graphs are made with Comet for Windows.

---------------------------------------------------------------------

Copyright(C) Seiichi Yoshida (comet@aerith.net). All rights reserved.